Volver al catálogo

STARLINK-32953

ActivoComunicacionesVLEO
NORAD 63561·PAYLOAD·🇺🇸 United States

Lanzado Apr 13, 2025 desde Cape Canaveral Space Force Station

Loading…

Próximos Pases (próximas 24 horas)

TLE

ActualizadoSource: CelesTrak SupGP

Época: Sep 15, 2026, 03:26 UTC

1 63561C 25075P   26258.14354167 -.00011692  00000+0 -42342-3 0  2580
2 63561  43.0001 280.8739 0001172 265.6065 317.9470 15.27589145    18

Sigue STARLINK-32953 en tiempo real con AllMySat

Download on the App Store